This demonstration page uses our WeatherBlox Daily Observations layout. Learn more.

Left ArrowRight Arrow

Hourly Observations for November 30, 2022

Temp ( °F °C ) Dew Point ( °F °C ) Humidity (%) Winds ( mph kmh ) Pressure ( in mb ) Visibility ( mi km ) Precip ( " mm )
12:53 am 00:53 Clear 14 -10 7 -13.9 73 73 W 8 13 30.25 1025 10 16 0.00 0.00
1:53 am 01:53 Clear 13 -10.6 6 -14.4 73 73 WNW 10 17 30.27 1025 10 16 0.00 0.00
2:53 am 02:53 Clear 12 -11.1 5 -15 73 73 W 8 13 30.29 1026 10 16 0.00 0.00
3:53 am 03:53 Clear 12 -11.1 5 -15 73 73 W 10 17 30.32 1027 10 16 0.00 0.00
4:53 am 04:53 Clear 10 -12.2 4 -15.6 76 76 W 7 11 30.35 1028 10 16 0.00 0.00
5:53 am 05:53 Clear 9 -12.8 3 -16.1 76 76 W 10 17 30.38 1029 10 16 0.00 0.00
6:53 am 06:53 Clear 9 -12.8 3 -16.1 76 76 WNW 8 13 30.40 1030 10 16 0.00 0.00
7:53 am 07:53 Sunny 6 -14.4 1 -17.2 79 79 WSW 7 11 30.44 1031 10 16 0.00 0.00
8:53 am 08:53 Sunny 12 -11.1 5 -15 73 73 W 9 15 30.45 1031 10 16 0.00 0.00
9:53 am 09:53 Sunny 18 -7.8 9 -12.8 67 67 WNW 10 17 30.46 1032 10 16 0.00 0.00
10:53 am 10:53 Sunny 21 -6.1 9 -12.8 59 59 WNW 9 15 30.48 1032 10 16 0.00 0.00
11:53 am 11:53 Sunny 25 -3.9 12 -11.1 57 57 W 7 11 30.47 1032 10 16 0.00 0.00
12:53 pm 12:53 Sunny 27 -2.8 14 -10 57 57 WNW 7 11 30.44 1031 10 16 0.00 0.00
1:53 pm 13:53 Sunny 29 -1.7 13 -10.6 51 51 W 8 13 30.42 1030 10 16 0.00 0.00
2:53 pm 14:53 Sunny 31 -0.6 14 -10 49 49 WSW 5 7 30.41 1030 10 16 0.00 0.00
3:53 pm 15:53 Sunny 31 -0.6 14 -10 49 49 SW 5 7 30.38 1029 10 16 0.00 0.00
4:53 pm 16:53 Sunny 30 -1.1 13 -10.6 48 48 S 6 9 30.39 1029 10 16 0.00 0.00
5:53 pm 17:53 Clear 27 -2.8 11 -11.7 50 50 S 7 11 30.39 1029 10 16 0.00 0.00
6:53 pm 18:53 Clear 26 -3.3 9 -12.8 48 48 SSE 8 13 30.38 1029 10 16 0.00 0.00
7:53 pm 19:53 Clear 24 -4.4 9 -12.8 52 52 S 8 13 30.39 1029 10 16 0.00 0.00
8:53 pm 20:53 Clear 24 -4.4 8 -13.3 50 50 SSE 9 15 30.37 1029 10 16 0.00 0.00
9:53 pm 21:53 Clear 22 -5.6 8 -13.3 54 54 SSE 10 17 30.34 1027 10 16 0.00 0.00

Powered by AerisWeather